North Bend, OR

11:49 PM PDT on August 21, 2017 (GMT -0700)
North Bend Municipal

Weather History for KOTH - July, 2012

Change the Weather History Date:

Thursday, July 5, 2012

  Actual Average Record
Temperature  
Mean Temperature 58 °F 58 °F  
Max Temperature 64 °F 64 °F 74 °F (1913)
Min Temperature 52 °F 52 °F 42 °F (1914)
Degree Days  
Heating Degree Days 7 7  
Month to date heating degree days 30 35  
Since 1 June heating degree days 282 302  
Since 1 July heating degree days 30 35  
Cooling Degree Days 0 0  
Month to date cooling degree days 0 0  
Year to date cooling degree days 0 0  
Since 1 June cooling degree days 0 0  
Growing Degree Days 8 (Base 50)    
Moisture  
Dew Point 53 °F    
Average Humidity 84    
Maximum Humidity 100    
Minimum Humidity 72    
Precipitation  
Precipitation 0.00 in 0.02 in 0.78 in (1948)
Month to date precipitation 0.11 0.11  
Year to date precipitation 28.47 36.23  
Sea Level Pressure  
Sea Level Pressure 30.04 in    
Wind  
Wind Speed 9 mph (North)    
Max Wind Speed 20 mph    
Max Gust Speed 24 mph    
Visibility 10 miles    
Events      
T = Trace of Precipitation, MM = Missing Value Source: NWS Daily Summary

Daily Weather History Graph

Daily Weather History Graph

Search for Another Location

Airport or City:

Trip Planner

Search our weather history database for the weather conditions in past years. The results will help you decide how hot, cold, wet, or windy it might be!

Date:

Astronomy

Jul. 05, 2012 Rise Set
Actual Time 5:42 AM PDT 9:00 PM PDT
Civil Twilight 5:07 AM PDT 9:35 PM PDT
Nautical Twilight 4:21 AM PDT 10:21 PM PDT
Astronomical Twilight 3:25 AM PDT 11:17 PM PDT
Moon 10:13 PM PDT (7/5) 8:06 AM PDT (7/5)
Length of Visible Light 16h 27m
Length of Day
15h 17m
Waning Gibbous, 95% of the Moon is Illuminated
Jul 5
Waning Gibbous
Jul 10
Last Quarter
Jul 18
New
Jul 26
First Quarter
Aug 1
Full

Hourly Weather History & Observations

Time (PDT) Temp. Dew Point Humidity Pressure Visibility Wind Dir Wind Speed Gust Speed Precip Events Conditions
12:15 AM 53.6 °F 51.8 °F 94% 30.01 in 10.0 mi Calm Calm - N/A   Clear
12:35 AM 53.6 °F 51.8 °F 94% 30.01 in 10.0 mi Calm Calm - N/A   Clear
12:55 AM 53.6 °F 51.8 °F 94% 30.01 in 10.0 mi Calm Calm - N/A   Clear
1:15 AM 53.6 °F 51.8 °F 94% 30.01 in 10.0 mi Calm Calm - N/A   Clear
1:35 AM 51.8 °F 51.8 °F 100% 30.01 in 10.0 mi Calm Calm - N/A   Clear
1:55 AM 51.8 °F 50.0 °F 94% 30.01 in 10.0 mi South 3.5 mph - N/A   Clear
2:15 AM 51.8 °F 50.0 °F 94% 30.01 in 10.0 mi Calm Calm - N/A   Clear
2:35 AM 51.8 °F 50.0 °F 94% 30.01 in 10.0 mi SE 3.5 mph - N/A   Clear
2:55 AM 51.8 °F 51.8 °F 100% 30.01 in 10.0 mi Calm Calm - N/A   Partly Cloudy
3:15 AM 51.8 °F 51.8 °F 100% 30.01 in 10.0 mi Calm Calm - N/A   Mostly Cloudy
3:35 AM 51.8 °F 51.8 °F 100% 30.01 in 10.0 mi SE 4.6 mph - N/A   Scattered Clouds
3:55 AM 51.8 °F 51.8 °F 100% 30.01 in 10.0 mi SE 5.8 mph - N/A   Scattered Clouds
4:15 AM 51.8 °F 51.8 °F 100% 30.01 in 10.0 mi SSE 5.8 mph - N/A   Overcast
4:35 AM 51.8 °F 51.8 °F 100% 30.01 in 10.0 mi SSE 4.6 mph - N/A   Overcast
4:55 AM 51.8 °F 51.8 °F 100% 30.01 in 10.0 mi SSE 3.5 mph - N/A   Overcast
5:15 AM 51.8 °F 51.8 °F 100% 30.01 in 10.0 mi SSE 3.5 mph - N/A   Overcast
5:35 AM 51.8 °F 50.0 °F 94% 30.01 in 10.0 mi SSE 3.5 mph - N/A   Overcast
5:55 AM 53.6 °F 51.8 °F 94% 30.02 in 10.0 mi Calm Calm - N/A   Overcast
6:15 AM 53.6 °F 51.8 °F 94% 30.02 in 10.0 mi Calm Calm - N/A   Overcast
6:35 AM 53.6 °F 53.6 °F 100% 30.02 in 10.0 mi Calm Calm - N/A   Overcast
6:55 AM 53.6 °F 53.6 °F 100% 30.02 in 10.0 mi Calm Calm - N/A   Mostly Cloudy
7:15 AM 55.4 °F 53.6 °F 94% 30.03 in 10.0 mi Calm Calm - N/A   Overcast
7:35 AM 55.4 °F 53.6 °F 94% 30.03 in 10.0 mi North 4.6 mph - N/A   Overcast
7:55 AM 57.2 °F 53.6 °F 88% 30.03 in 10.0 mi NNE 3.5 mph - N/A   Overcast
8:15 AM 57.2 °F 53.6 °F 88% 30.03 in 10.0 mi North 5.8 mph - N/A   Overcast
8:35 AM 57.2 °F 53.6 °F 88% 30.04 in 10.0 mi NNW 8.1 mph - N/A   Scattered Clouds
8:55 AM 59.0 °F 53.6 °F 82% 30.03 in 10.0 mi North 8.1 mph - N/A   Scattered Clouds
9:15 AM 60.8 °F 53.6 °F 77% 30.04 in 9.0 mi NNW 9.2 mph - N/A   Scattered Clouds
9:35 AM 60.8 °F 53.6 °F 77% 30.04 in 10.0 mi NNW 12.7 mph - N/A   Scattered Clouds
9:55 AM 60.8 °F 53.6 °F 77% 30.03 in 10.0 mi North 11.5 mph - N/A   Scattered Clouds
10:15 AM 62.6 °F 53.6 °F 72% 30.03 in 10.0 mi NNW 10.4 mph - N/A   Clear
10:35 AM 60.8 °F 53.6 °F 77% 30.03 in 10.0 mi NNW 12.7 mph - N/A   Clear
10:55 AM 62.6 °F 53.6 °F 72% 30.03 in 10.0 mi NNW 13.8 mph - N/A   Clear
11:15 AM 62.6 °F 53.6 °F 72% 30.03 in 10.0 mi North 12.7 mph - N/A   Clear
11:35 AM 62.6 °F 55.4 °F 77% 30.03 in 10.0 mi NNW 13.8 mph 19.6 mph N/A   Clear
11:55 AM 62.6 °F 55.4 °F 77% 30.03 in 10.0 mi North 12.7 mph 20.7 mph N/A   Clear
12:15 PM 62.6 °F 55.4 °F 77% 30.03 in 10.0 mi North 15.0 mph 21.9 mph N/A   Clear
12:35 PM 62.6 °F 55.4 °F 77% 30.03 in 10.0 mi NNW 17.3 mph 21.9 mph N/A   Clear
12:55 PM 62.6 °F 55.4 °F 77% 30.03 in 10.0 mi North 17.3 mph - N/A   Clear
1:15 PM 62.6 °F 55.4 °F 77% 30.03 in 10.0 mi North 15.0 mph 21.9 mph N/A   Clear
1:35 PM 62.6 °F 55.4 °F 77% 30.03 in 10.0 mi North 18.4 mph 23.0 mph N/A   Clear
1:55 PM 62.6 °F 55.4 °F 77% 30.03 in 10.0 mi North 13.8 mph 23.0 mph N/A   Clear
2:15 PM 64.4 °F 55.4 °F 73% 30.03 in 10.0 mi North 13.8 mph 20.7 mph N/A   Clear
2:35 PM 64.4 °F 55.4 °F 73% 30.04 in 10.0 mi NNW 17.3 mph 23.0 mph N/A   Clear
2:55 PM 62.6 °F 55.4 °F 77% 30.04 in 10.0 mi North 17.3 mph 24.2 mph N/A   Clear
3:15 PM 64.4 °F 55.4 °F 73% 30.04 in 10.0 mi North 16.1 mph - N/A   Clear
3:35 PM 64.4 °F 55.4 °F 73% 30.03 in 10.0 mi North 17.3 mph 21.9 mph N/A   Clear
3:55 PM 64.4 °F 55.4 °F 73% 30.04 in 10.0 mi North 16.1 mph 21.9 mph N/A   Clear
4:15 PM 62.6 °F 55.4 °F 77% 30.04 in 10.0 mi North 17.3 mph 24.2 mph N/A   Clear
4:35 PM 62.6 °F 55.4 °F 77% 30.04 in 10.0 mi North 15.0 mph 24.2 mph N/A   Clear
4:55 PM 62.6 °F 53.6 °F 72% 30.04 in 10.0 mi North 19.6 mph 23.0 mph N/A   Clear
5:15 PM 62.6 °F 53.6 °F 72% 30.04 in 10.0 mi North 18.4 mph 23.0 mph N/A   Clear
5:35 PM 62.6 °F 53.6 °F 72% 30.04 in 10.0 mi North 20.7 mph - N/A   Clear
5:55 PM 62.6 °F 55.4 °F 77% 30.04 in 10.0 mi North 17.3 mph 21.9 mph N/A   Clear
6:15 PM 62.6 °F 53.6 °F 72% 30.04 in 10.0 mi NNW 15.0 mph 23.0 mph N/A   Clear
6:35 PM - - N/A% 30.03 in - North 15.0 mph - N/A   Unknown
6:55 PM 60.8 °F 53.6 °F 77% 30.04 in 10.0 mi NNW 16.1 mph 20.7 mph N/A   Clear
7:15 PM 60.8 °F 55.4 °F 82% 30.04 in 10.0 mi North 13.8 mph - N/A   Partly Cloudy
7:35 PM 60.8 °F 53.6 °F 77% 30.05 in 10.0 mi North 12.7 mph - N/A   Mostly Cloudy
7:55 PM 60.8 °F 53.6 °F 77% 30.05 in 10.0 mi North 11.5 mph - N/A   Overcast
8:15 PM 59.0 °F 53.6 °F 82% 30.05 in 10.0 mi NNW 10.4 mph - N/A   Mostly Cloudy
8:35 PM 59.0 °F 53.6 °F 82% 30.06 in 10.0 mi North 8.1 mph - N/A   Mostly Cloudy
8:55 PM 59.0 °F 53.6 °F 82% 30.06 in 10.0 mi North 8.1 mph - N/A   Mostly Cloudy
9:15 PM 59.0 °F 53.6 °F 82% 30.07 in 10.0 mi North 6.9 mph - N/A   Mostly Cloudy
9:35 PM 59.0 °F 53.6 °F 82% 30.08 in 10.0 mi NNW 6.9 mph - N/A   Mostly Cloudy
9:55 PM 59.0 °F 53.6 °F 82% 30.08 in 10.0 mi North 8.1 mph - N/A   Mostly Cloudy
10:15 PM 59.0 °F 53.6 °F 82% 30.09 in 10.0 mi North 8.1 mph - N/A   Overcast
10:35 PM 59.0 °F 53.6 °F 82% 30.09 in 10.0 mi North 5.8 mph - N/A   Overcast
10:55 PM 59.0 °F 53.6 °F 82% 30.10 in 10.0 mi North 8.1 mph - N/A   Overcast
11:15 PM 59.0 °F 53.6 °F 82% 30.10 in 10.0 mi North 9.2 mph - N/A   Overcast
11:35 PM 59.0 °F 53.6 °F 82% 30.10 in 10.0 mi NNW 5.8 mph - N/A   Overcast
11:55 PM 59.0 °F 51.8 °F 77% 30.10 in 10.0 mi North 9.2 mph - N/A   Overcast